TimeEDT,TemperatureF,Dew PointF,Humidity,Sea Level PressureIn,VisibilityMPH,Wind Direction,Wind SpeedMPH,Gust SpeedMPH,PrecipitationIn,Events,Conditions,WindDirDegrees,DateUTC
12:53 AM,50.0,46.9,89,30.18,10.0,Calm,Calm,-,N/A,,Clear,0,2013-10-08 04:53:00
1:53 AM,48.9,46.9,93,30.19,10.0,Calm,Calm,-,N/A,,Clear,0,2013-10-08 05:53:00
2:53 AM,50.0,46.0,86,30.17,10.0,North,4.6,-,N/A,,Clear,10,2013-10-08 06:53:00
3:53 AM,46.9,45.0,93,30.18,10.0,Calm,Calm,-,N/A,,Clear,0,2013-10-08 07:53:00
4:53 AM,46.9,45.0,93,30.19,10.0,Calm,Calm,-,N/A,,Clear,0,2013-10-08 08:53:00
5:31 AM,44.6,42.8,93,30.20,1.8,Calm,Calm,-,N/A,,Clear,0,2013-10-08 09:31:00
5:40 AM,44.6,42.8,93,30.20,4.0,Calm,Calm,-,N/A,,Clear,0,2013-10-08 09:40:00
5:53 AM,45.0,44.1,97,30.20,10.0,Calm,Calm,-,N/A,,Clear,0,2013-10-08 09:53:00
6:53 AM,45.0,43.0,93,30.22,10.0,Calm,Calm,-,N/A,,Clear,0,2013-10-08 10:53:00
7:53 AM,46.0,43.0,89,30.24,10.0,NNE,3.5,-,N/A,,Clear,20,2013-10-08 11:53:00
8:53 AM,51.1,46.0,83,30.26,10.0,NE,3.5,-,N/A,,Clear,40,2013-10-08 12:53:00
9:53 AM,55.9,46.0,69,30.27,10.0,ENE,6.9,-,N/A,,Clear,70,2013-10-08 13:53:00
10:53 AM,59.0,46.9,64,30.27,10.0,ENE,10.4,-,N/A,,Clear,70,2013-10-08 14:53:00
11:53 AM,61.0,45.0,56,30.26,10.0,East,11.5,-,N/A,,Clear,100,2013-10-08 15:53:00
12:53 PM,64.0,45.0,50,30.25,10.0,East,8.1,-,N/A,,Clear,80,2013-10-08 16:53:00
1:53 PM,66.0,44.1,45,30.23,10.0,ENE,10.4,-,N/A,,Clear,70,2013-10-08 17:53:00
2:53 PM,66.9,44.1,44,30.20,10.0,East,10.4,17.3,N/A,,Clear,80,2013-10-08 18:53:00
3:53 PM,69.1,43.0,39,30.19,10.0,East,9.2,-,N/A,,Clear,80,2013-10-08 19:53:00
4:53 PM,69.1,43.0,39,30.17,10.0,ENE,10.4,16.1,N/A,,Clear,60,2013-10-08 20:53:00
5:53 PM,68.0,43.0,40,30.17,10.0,ENE,6.9,-,N/A,,Clear,60,2013-10-08 21:53:00
6:53 PM,66.0,44.1,45,30.18,10.0,NE,4.6,-,N/A,,Clear,50,2013-10-08 22:53:00
7:53 PM,63.0,45.0,52,30.18,10.0,NE,3.5,-,N/A,,Clear,40,2013-10-08 23:53:00
8:53 PM,57.9,46.9,67,30.19,10.0,Calm,Calm,-,N/A,,Clear,0,2013-10-09 00:53:00
9:53 PM,55.9,46.9,72,30.20,10.0,Calm,Calm,-,N/A,,Clear,0,2013-10-09 01:53:00
10:53 PM,55.9,46.9,72,30.20,10.0,ENE,3.5,-,N/A,,Clear,60,2013-10-09 02:53:00
11:53 PM,55.9,46.0,69,30.20,10.0,ENE,3.5,-,N/A,,Clear,60,2013-10-09 03:53:00